CW5775 Weather Reports


time (UTC)temp
F
wind
direction
speed
knots
gust
knots
rain 1hr
in
rain 24hr
in
rain mn
in
humidity
%
barometer
mb
20260504160346 68 179 1.7 5.2 0.00 0.00 0.00 42 1010.0
20260504150354 65 244 2.6 7.8 0.00 0.00 0.00 53 1010.4
20260504140350 62 206 5.2 10.4 0.00 0.00 0.00 63 1010.5
20260504130350 59 181 7.8 11.3 0.00 0.00 0.00 65 1011.1
20260504110347 47 186 1.7 2.6 0.00 0.00 0.00 87 1011.7
20260504100358 45 188 0.9 2.6 0.00 0.00 0.00 83 1011.9
20260504081555 47 182 1.7 0.0 0.00 0.00 0.00 73 1011.8
20260504081354 47 182 1.7 4.3 0.00 0.00 0.00 73 1011.8
20260504080350 47 189 2.6 4.3 0.00 0.00 0.00 72 1011.7
20260504070406 47 184 2.6 4.3 0.00 0.00 0.00 71 1011.4
20260504050350 47 187 1.7 4.3 0.00 0.00 0.00 68 1011.4
20260504045344 47 186 1.7 2.6 0.00 0.00 0.00 68 1011.3
20260504044527 46 184 1.7 0.0 0.00 0.00 0.00 68 1011.4
20260504044343 47 184 1.7 2.6 0.00 0.00 0.00 68 1011.3
20260504043337 47 185 0.9 2.6 0.00 0.00 0.00 68 1011.1
20260504043015 46 185 1.7 0.0 0.00 0.00 0.00 68 1011.2
20260504042349 47 184 1.7 3.5 0.00 0.00 0.00 67 1011.0
20260504041553 47 187 1.7 0.0 0.00 0.00 0.00 66 1011.0
20260504041348 48 187 1.7 2.6 0.00 0.00 0.00 66 1011.0
20260504040343 48 187 1.7 3.5 0.00 0.00 0.00 64 1010.9
20260504040022 48 187 1.7 0.0 0.00 0.00 0.00 64 1011.0
20260504035343 49 189 1.7 3.5 0.00 0.00 0.00 63 1010.9
20260504034607 48 190 1.7 0.0 0.00 0.00 0.00 63 1011.0
20260504034402 49 190 1.7 3.5 0.00 0.00 0.00 63 1010.9
20260504033336 49 188 1.7 3.5 0.00 0.00 0.00 62 1010.8
20260504033022 48 187 1.7 0.0 0.00 0.00 0.00 62 1010.9
20260504032335 49 186 1.7 2.6 0.00 0.00 0.00 62 1010.7
20260504031605 49 185 1.7 0.0 0.00 0.00 0.00 61 1010.8
20260504031357 49 184 1.7 3.5 0.00 0.00 0.00 61 1010.7
20260504030352 49 183 1.7 3.5 0.00 0.00 0.00 59 1010.7
20260504025344 50 181 0.9 2.6 0.00 0.00 0.00 58 1010.8
20260504024539 49 180 1.7 0.0 0.00 0.00 0.00 58 1010.9
20260504024343 50 180 2.6 3.5 0.00 0.00 0.00 57 1010.8
20260504023407 50 190 1.7 3.5 0.00 0.00 0.00 57 1010.8
20260504023009 50 187 1.7 0.0 0.00 0.00 0.00 57 1010.9
20260504022342 50 193 1.7 3.5 0.00 0.00 0.00 56 1010.8
20260504021554 50 191 1.7 0.0 0.00 0.00 0.00 56 1010.8
20260504021339 51 191 1.7 2.6 0.00 0.00 0.00 56 1010.8
20260504020401 51 191 1.7 3.5 0.00 0.00 0.00 55 1010.7
20260504020035 51 192 0.9 0.0 0.00 0.00 0.00 55 1010.7
20260504015356 51 193 0.9 2.6 0.00 0.00 0.00 54 1010.6
20260504014619 51 191 0.9 0.0 0.00 0.00 0.00 53 1010.6
20260504014355 52 191 0.9 2.6 0.00 0.00 0.00 53 1010.6
20260504013348 52 191 1.7 2.6 0.00 0.00 0.00 52 1010.4
20260504013103 52 191 1.7 0.0 0.00 0.00 0.00 52 1010.5
20260504012344 52 205 0.9 2.6 0.00 0.00 0.00 52 1010.4
20260504011534 52 217 0.9 0.0 0.00 0.00 0.00 51 1010.4
20260504011340 53 220 1.7 2.6 0.00 0.00 0.00 50 1010.4
20260504010337 53 222 0.9 1.7 0.00 0.00 0.00 50 1010.1
20260504010022 52 222 0.9 0.0 0.00 0.00 0.00 50 1010.2
20260504005333 53 222 0.9 2.6 0.00 0.00 0.00 49 1009.9
20260504004512 53 224 0.0 0.0 0.00 0.00 0.00 50 1010.0
20260504004353 54 224 0.0 0.9 0.00 0.00 0.00 49 1009.9
20260504003349 55 224 0.0 1.7 0.00 0.00 0.00 46 1009.7
20260504003003 55 224 0.9 0.0 0.00 0.00 0.00 47 1009.8
20260504002343 56 224 0.9 2.6 0.00 0.00 0.00 44 1009.5
20260504001559 56 224 0.9 0.0 0.00 0.00 0.00 43 1009.5
20260504001342 56 226 0.9 1.7 0.00 0.00 0.00 43 1009.5
20260504000403 57 227 0.0 1.7 0.00 0.00 0.00 42 1009.4
20260504000038 56 227 0.0 0.0 0.00 0.00 0.00 42 1009.4
20260503235337 57 225 0.0 2.6 0.00 0.00 0.00 41 1009.4
20260503234527 57 225 0.9 0.0 0.00 0.00 0.00 40 1009.4
20260503234354 58 251 0.9 2.6 0.00 0.00 0.00 41 1009.4
20260503233344 58 288 0.9 6.1 0.00 0.00 0.00 40 1009.2
20260503233031 58 293 1.7 0.0 0.00 0.00 0.00 40 1009.3
20260503232359 59 251 1.7 6.1 0.00 0.00 0.00 39 1009.2
20260503231545 59 304 0.9 0.0 0.00 0.00 0.00 38 1009.3
20260503231338 59 304 1.7 5.2 0.00 0.00 0.00 38 1009.2
20260503230334 59 313 2.6 7.8 0.00 0.00 0.00 38 1009.0
20260503230051 59 323 1.7 0.0 0.00 0.00 0.00 38 1009.1
20260503225353 59 305 3.5 9.6 0.00 0.00 0.00 37 1009.1
20260503224517 59 305 2.6 0.0 0.00 0.00 0.00 37 1009.1
20260503224348 59 286 2.6 14.8 0.00 0.00 0.00 37 1009.1
20260503223412 59 248 2.6 6.1 0.00 0.00 0.00 37 1008.9
20260503223001 59 234 2.6 0.0 0.00 0.00 0.00 37 1009.0
20260503222414 59 308 4.3 9.6 0.00 0.00 0.00 37 1009.0
20260503221516 59 267 3.5 0.0 0.00 0.00 0.00 38 1009.0
20260503221352 59 279 2.6 8.7 0.00 0.00 0.00 37 1009.0
20260503220343 60 314 4.3 13.0 0.00 0.00 0.00 36 1009.1
20260503220041 59 305 2.6 0.0 0.00 0.00 0.00 38 1009.1
20260503215343 60 253 2.6 9.6 0.00 0.00 0.00 38 1009.0
20260503214557 60 357 2.6 0.0 0.00 0.00 0.00 37 1009.1
20260503214341 60 342 3.5 8.7 0.00 0.00 0.00 38 1009.0
20260503213338 60 303 0.9 10.4 0.00 0.00 0.00 38 1009.0
20260503213106 59 288 3.5 0.0 0.00 0.00 0.00 37 1009.0
20260503212404 60 284 2.6 9.6 0.00 0.00 0.00 38 1009.0
20260503211505 59 75 3.5 0.0 0.00 0.00 0.00 38 1009.0
20260503211342 59 300 2.6 13.9 0.00 0.00 0.00 39 1009.0
20260503210338 60 277 3.5 9.6 0.00 0.00 0.00 38 1009.1
20260503210105 59 16 2.6 0.0 0.00 0.00 0.00 40 1009.2
20260503205335 59 328 1.7 7.8 0.00 0.00 0.00 39 1009.1
20260503204545 59 272 2.6 0.0 0.00 0.00 0.00 39 1009.1
20260503204338 59 304 1.7 13.0 0.00 0.00 0.00 40 1009.1
20260503203353 59 277 2.6 11.3 0.00 0.00 0.00 39 1009.2
20260503203038 58 286 3.5 0.0 0.00 0.00 0.00 38 1009.3
20260503202352 58 284 4.3 11.3 0.00 0.00 0.00 39 1009.2
20260503201505 58 301 4.3 0.0 0.00 0.00 0.00 37 1009.3
20260503201347 58 210 5.2 12.2 0.00 0.00 0.00 36 1009.2
20260503200345 59 257 2.6 12.2 0.00 0.00 0.00 37 1009.0
20260503200003 59 281 2.6 0.0 0.00 0.00 0.00 38 1009.1
20260503195343 59 244 2.6 13.0 0.00 0.00 0.00 38 1009.3
20260503194543 59 158 2.6 0.0 0.00 0.00 0.00 38 1009.3
20260503194343 59 303 0.9 8.7 0.00 0.00 0.00 42 1009.3
20260503193336 58 284 2.6 13.9 0.00 0.00 0.00 40 1009.3
20260503193046 57 355 3.5 0.0 0.00 0.00 0.00 37 1009.4
20260503192352 58 152 3.5 10.4 0.00 0.00 0.00 38 1009.4
20260503191518 57 305 3.5 0.0 0.00 0.00 0.00 38 1009.4
20260503191348 58 222 6.1 11.3 0.00 0.00 0.00 37 1009.4
20260503190345 58 317 0.9 11.3 0.00 0.00 0.00 39 1009.6
20260503190021 57 215 3.5 0.0 0.00 0.00 0.00 39 1009.6
20260503185406 57 190 1.7 14.8 0.00 0.00 0.00 42 1009.8
20260503184534 57 308 2.6 0.0 0.00 0.00 0.00 40 1009.9
20260503184411 57 251 3.5 8.7 0.00 0.00 0.00 43 1009.8
20260503183339 56 284 4.3 10.4 0.00 0.00 0.00 42 1009.9
20260503183034 55 308 2.6 0.0 0.00 0.00 0.00 42 1010.0
20260503182405 56 270 2.6 14.8 0.00 0.00 0.00 41 1009.9
20260503181534 56 23 3.5 0.0 0.00 0.00 0.00 42 1010.0
20260503181340 56 131 5.2 13.0 0.00 0.00 0.00 41 1009.9
20260503180352 56 258 4.3 11.3 0.00 0.00 0.00 45 1010.1
20260503180035 55 340 3.5 0.0 0.00 0.00 0.00 43 1010.2
20260503175348 56 329 3.5 11.3 0.00 0.00 0.00 44 1010.0
20260503174502 55 87 3.5 0.0 0.00 0.00 0.00 44 1010.1
20260503174412 55 292 4.3 8.7 0.00 0.00 0.00 44 1010.0
20260503173347 54 305 3.5 8.7 0.00 0.00 0.00 44 1010.1
20260503173057 54 335 2.6 0.0 0.00 0.00 0.00 46 1010.2
20260503172341 54 319 2.6 8.7 0.00 0.00 0.00 45 1010.0
20260503171516 54 291 3.5 0.0 0.00 0.00 0.00 45 1010.1
20260503171339 54 33 2.6 13.0 0.00 0.00 0.00 46 1010.0
20260503170414 54 337 6.1 13.0 0.00 0.00 0.00 46 1010.1